FW1873 Weather Reports


time (UTC)temp
F
wind
direction
speed
knots
gust
knots
rain 1hr
in
rain 24hr
in
rain mn
in
humidity
%
barometer
mb
20260902231612 91 224 0.9 2.6 0.00 0.00 0.00 60 1040.1
20260902230532 91 221 0.9 3.5 0.00 0.00 0.00 59 1040.1
20260902224549 93 214 1.7 6.1 0.00 0.00 0.00 57 1040.1
20260902223526 93 236 0.9 4.3 0.00 0.00 0.00 56 1040.1
20260902222526 94 209 3.5 6.1 0.00 0.00 0.00 53 1040.2
20260902221605 96 242 1.7 4.3 0.00 0.00 0.00 54 1040.4
20260902220553 97 242 1.7 4.3 0.00 0.00 0.00 51 1040.4
20260902215554 98 268 2.6 6.1 0.00 0.00 0.00 46 1040.4
20260902214525 98 230 2.6 6.1 0.00 0.00 0.00 44 1040.4
20260902213543 98 225 2.6 6.1 0.00 0.00 0.00 46 1040.4
20260902212549 99 226 2.6 6.1 0.00 0.00 0.00 50 1040.4
20260902211628 101 216 2.6 6.1 0.00 0.00 0.00 44 1040.4
20260902210547 100 235 1.7 4.3 0.00 0.00 0.00 49 1040.4
20260902205547 101 276 1.7 6.1 0.00 0.00 0.00 51 1040.7
20260902204600 100 239 2.6 7.0 0.00 0.00 0.00 57 1040.7
20260902203544 100 264 1.7 3.5 0.00 0.00 0.00 58 1040.7
20260902202603 100 21 0.9 3.5 0.00 0.00 0.00 57 1040.7
20260902201543 102 257 1.7 4.3 0.00 0.00 0.00 58 1040.7
20260902200602 101 232 2.6 6.1 0.00 0.00 0.00 56 1040.8
20260902195603 100 238 2.6 6.1 0.00 0.00 0.00 57 1041.1
20260902194622 101 280 0.9 3.5 0.00 0.00 0.00 57 1041.1
20260902193538 102 255 2.6 7.0 0.00 0.00 0.00 57 1041.1
20260902192537 102 231 2.6 7.0 0.00 0.00 0.00 57 1041.3
20260902191557 101 183 1.7 3.5 0.00 0.00 0.00 61 1041.5
20260902190639 100 240 1.7 3.5 0.00 0.00 0.00 59 1041.6
20260902185556 101 234 2.6 9.6 0.00 0.00 0.00 57 1041.6
20260902183533 100 9 0.9 3.5 0.00 0.00 0.00 61 1041.9
20260902182532 99 250 1.7 3.5 0.00 0.00 0.00 62 1041.9
20260902181613 99 34 0.9 2.6 0.00 0.00 0.00 63 1041.9
20260902180530 98 13 0.9 2.6 0.00 0.00 0.00 64 1042.0
20260902175551 97 255 0.9 6.1 0.00 0.00 0.00 66 1042.2
20260902174527 97 275 1.7 4.3 0.00 0.00 0.00 66 1042.2
20260902173607 97 233 1.7 4.3 0.00 0.00 0.00 64 1042.5
20260902172527 98 182 1.7 4.3 0.00 0.00 0.00 66 1042.5
20260902171525 98 279 1.7 6.1 0.00 0.00 0.00 65 1042.5
20260902170526 98 288 1.7 6.1 0.00 0.00 0.00 64 1042.5
20260902165524 98 222 2.6 4.3 0.00 0.00 0.00 66 1042.6
20260902164553 97 301 0.9 4.3 0.00 0.00 0.00 66 1042.6
20260902163551 97 231 1.7 6.1 0.00 0.00 0.00 66 1042.8
20260902162621 96 221 2.6 6.1 0.00 0.00 0.00 66 1042.6
20260902161539 96 280 1.7 4.3 0.00 0.00 0.00 69 1042.8
20260902160550 95 237 0.9 2.6 0.00 0.00 0.00 70 1042.9
20260902155609 94 281 1.7 4.3 0.00 0.00 0.00 70 1042.9
20260902154606 93 278 0.9 3.5 0.00 0.00 0.00 71 1042.9
20260902153647 92 251 0.9 3.5 0.00 0.00 0.00 71 1043.2
20260902152544 91 248 1.7 4.3 0.00 0.00 0.00 71 1043.2
20260902151543 90 267 0.9 4.3 0.00 0.00 0.00 72 1043.2
20260902150706 89 258 2.6 4.3 0.00 0.00 0.00 72 1043.2
20260902145601 89 242 2.6 4.3 0.00 0.00 0.00 73 1043.2
20260902144600 88 243 1.7 4.3 0.00 0.00 0.00 73 1043.2
20260902143600 86 218 1.7 4.3 0.00 0.00 0.00 75 1043.2
20260902142539 84 277 0.9 3.5 0.00 0.00 0.00 75 1043.1
20260902141537 83 285 0.9 2.6 0.00 0.00 0.00 75 1043.2
20260902140536 81 211 2.6 4.3 0.00 0.00 0.00 76 1043.0
20260902135535 79 238 1.7 3.5 0.00 0.00 0.00 78 1043.1
20260902134534 78 249 0.9 3.5 0.00 0.00 0.00 78 1043.2
20260902133533 77 249 0.9 3.5 0.00 0.00 0.00 78 1043.0
20260902132532 76 225 0.9 2.6 0.00 0.00 0.00 71 1042.9
20260902131656 76 238 0.0 2.6 0.00 0.00 0.00 80 1043.0
20260902130613 75 238 0.9 2.6 0.00 0.00 0.00 80 1042.9
20260902125529 73 35 0.9 2.6 0.00 0.00 0.00 81 1042.9
20260902124631 73 154 0.9 2.6 0.00 0.00 0.00 81 1042.9
20260902123611 72 315 0.0 0.9 0.00 0.00 0.00 81 1042.9
20260902122640 71 0.0 0.0 0.00 0.00 0.00 81 1042.9
20260902121526 70 0.0 0.0 0.00 0.00 0.00 82 1042.9
20260902120526 70 0.0 0.0 0.00 0.00 0.00 82 1042.9
20260902115524 69 0.0 0.0 0.00 0.00 0.00 82 1042.9
20260902114554 69 0.0 0.0 0.00 0.00 0.00 82 1042.6
20260902113623 69 0.0 0.0 0.00 0.00 0.00 82 1042.5
20260902112551 69 0.0 0.0 0.00 0.00 0.00 82 1042.5
20260902111622 69 0.0 0.0 0.00 0.00 0.00 82 1042.2
20260902110620 69 0.0 0.0 0.00 0.00 0.00 82 1042.2
20260902105621 69 0.0 0.0 0.00 0.00 0.00 82 1042.3
20260902104629 69 0.0 0.0 0.00 0.00 0.00 82 1042.2
20260902103628 69 0.0 0.0 0.00 0.00 0.00 82 1042.5
20260902102546 69 0.0 0.0 0.00 0.00 0.00 82 1042.2
20260902101545 69 0.0 0.0 0.00 0.00 0.00 72 1042.2
20260902100614 69 0.0 0.0 0.00 0.00 0.00 81 1042.2
20260902095625 69 0.0 0.0 0.00 0.00 0.00 81 1042.2
20260902094542 69 0.0 0.0 0.00 0.00 0.00 81 1042.2
20260902093611 69 0.0 0.0 0.00 0.00 0.00 81 1042.2
20260902092703 70 0.0 0.0 0.00 0.00 0.00 81 1042.2
20260902091631 70 0.0 0.0 0.00 0.00 0.00 81 1042.2
20260902090559 70 0.0 0.0 0.00 0.00 0.00 81 1042.2
20260902085538 70 0.0 0.0 0.00 0.00 0.00 81 1041.9
20260902084608 70 0.0 0.0 0.00 0.00 0.00 81 1041.9
20260902083536 70 0.0 0.0 0.00 0.00 0.00 81 1041.6
20260902082638 70 0.0 0.0 0.00 0.00 0.00 81 1041.5
20260902081635 70 0.0 0.0 0.00 0.00 0.00 81 1041.5
20260902080604 70 0.0 0.0 0.00 0.00 0.00 81 1041.5
20260902075655 70 0.0 0.0 0.00 0.00 0.00 81 1041.5
20260902074733 70 0.0 0.0 0.00 0.00 0.00 80 1041.5
20260902073551 70 0.0 0.0 0.00 0.00 0.00 80 1041.5
20260902072651 70 315 0.0 0.9 0.00 0.00 0.00 80 1041.5
20260902071609 70 0.0 0.0 0.00 0.00 0.00 80 1041.5
20260902070628 70 0.0 0.0 0.00 0.00 0.00 79 1041.5
20260902065630 70 0.0 0.0 0.00 0.00 0.00 80 1041.5
20260902064619 70 0.0 0.0 0.00 0.00 0.00 80 1041.5
20260902063526 70 0.0 0.0 0.00 0.00 0.00 79 1041.5
20260902062706 71 0.0 0.0 0.00 0.00 0.00 79 1041.5
20260902061624 71 0.0 0.0 0.00 0.00 0.00 79 1041.5
20260902060613 71 0.0 0.0 0.00 0.00 0.00 78 1041.5
20260902055623 71 0.0 0.0 0.00 0.00 0.00 78 1041.5
20260902054654 71 0.0 0.0 0.00 0.00 0.00 78 1041.5
20260902052550 71 0.0 0.0 0.00 0.00 0.00 78 1041.5
20260902051639 71 0.0 0.0 0.00 0.00 0.00 78 1041.5
20260902050659 72 0.0 0.0 0.00 0.00 0.00 78 1041.5
20260902045547 72 0.0 0.0 0.00 0.00 0.00 78 1041.5
20260902044616 72 0.0 0.0 0.00 0.00 0.00 77 1041.5
20260902043615 72 0.0 0.0 0.00 0.00 0.00 77 1041.5
20260902042614 72 0.0 0.0 0.00 0.00 0.00 77 1041.5
20260902041633 73 0.0 0.0 0.00 0.00 0.00 77 1041.5
20260902040544 73 0.0 0.0 0.00 0.00 0.00 76 1041.8
20260902035653 73 0.0 0.0 0.00 0.00 0.00 76 1041.6
20260902034631 73 0.0 0.0 0.00 0.00 0.00 76 1041.5
20260902033633 74 0.0 0.0 0.00 0.00 0.00 76 1041.5
20260902032630 74 0.0 0.0 0.00 0.00 0.00 76 1041.5
20260902031719 75 0.0 0.0 0.00 0.00 0.00 75 1041.5
20260902030650 75 0.0 0.0 0.00 0.00 0.00 75 1041.5
20260902025739 76 0.0 0.0 0.00 0.00 0.00 74 1041.5
20260902024536 76 0.0 0.0 0.00 0.00 0.00 65 1041.5
20260902023555 76 0.0 0.0 0.00 0.00 0.00 74 1041.5
20260902022615 76 0.0 0.0 0.00 0.00 0.00 73 1041.5
20260902021603 77 0.0 0.0 0.00 0.00 0.00 73 1041.5
20260902020532 78 315 0.0 0.9 0.00 0.00 0.00 73 1041.4
20260902015615 78 0.0 0.0 0.00 0.00 0.00 73 1041.1
20260902014630 79 0.0 0.0 0.00 0.00 0.00 72 1041.2
20260902013651 79 0.0 0.0 0.00 0.00 0.00 72 1041.5
20260902012652 80 0.0 0.0 0.00 0.00 0.00 72 1041.2
20260902011549 80 0.0 0.0 0.00 0.00 0.00 70 1041.1
20260902010630 81 0.0 0.0 0.00 0.00 0.00 71 1041.1
20260902005626 82 0.0 0.0 0.00 0.00 0.00 69 1041.1
20260902004636 82 0.0 0.0 0.00 0.00 0.00 69 1041.0
20260902003727 83 0.0 0.0 0.00 0.00 0.00 68 1040.8
20260902002523 84 0.0 0.0 0.00 0.00 0.00 67 1040.8
20260902001523 85 0.0 0.0 0.00 0.00 0.00 67 1041.1
20260902000542 86 0.0 0.0 0.00 0.00 0.00 66 1041.1
20260901235541 87 0.0 0.0 0.00 0.00 0.00 65 1041.1
20260901234709 88 0.0 0.0 0.00 0.00 0.00 64 1041.1
20260901233553 89 263 0.0 2.6 0.00 0.00 0.00 61 1041.1
20260901232658 90 205 0.0 2.6 0.00 0.00 0.00 62 1041.1